CAPE
0 0 0 0 0 0 1 2 4 0 1 0 0 1 5 0 0 6 4 0 159 106 149 163 79 0 0 0 0 0 0 0 0 0 0 0 0 0 0 0 0 0 0 0
1 0 0 0 0 0 1 5 7 4 3 0 5 13 0 0 0 0 0 1 13 65 41 0 0 0 0 0 0 0 0 0 0 0 0 0 0 0 0 0 0 0 0 0
0 0 0 0 0 0 3 0 2 4 4 6 3 13 0 0 0 0 0 0 0 8 0 0 0 0 0 0 0 0 0 0 0 0 0 0 0 0 0 0 0 0 0 0
3 0 0 13 0 0 0 0 7 0 0 1 4 5 1 0 0 0 0 0 0 0 0 0 0 0 0 0 0 0 0 0 0 0 0 0 0 0 0 0 0 0 0 0
19 6 0 0 0 0 2 0 0 0 0 0 0 0 0 0 1 0 0 0 0 0 0 0 0 0 0 0 0 0 0 0 0 0 0 0 0 0 0 0 0 0 0 0
5 8 0 0 0 0 0 0 0 0 0 0 0 1 2 0 3 0 0 0 0 0 0 0 0 0 0 0 0 0 0 0 0 0 0 0 0 0 0 0 0 0 0 0
2 10 0 0 0 0 0 0 0 0 0 0 0 0 0 0 0 0 0 0 0 0 0 0 0 0 1 1 1 2 1 0 0 0 0 0 0 0 0 0 0 0 0 0
0 5 0 0 0 0 0 0 0 0 0 0 0 0 0 0 0 0 0 0 1 1 2 2 1 0 0 0 0 0 0 0 0 0 0 0 0 0 0 0 0 0 0 0
0 0 0 0 0 0 0 0 0 0 0 0 0 0 0 0 0 0 0 0 0 0 0 0 0 0 0 0 0 0 0 0 0 0 0 0 0 0 0 0 0 0 0 0
0 0 0 0 0 0 0 0 0 0 0 0 0 0 0 0 0 0 0 0 0 0 0 0 0 0 0 0 0 0 0 0 0 0 0 0 0 0 0 0 0 0 0 0
0 0 0 0 0 0 0 0 0 0 0 0 0 0 0 0 0 0 0 0 0 0 0 0 0 0 0 0 0 0 0 0 0 0 0 0 0 0 0 0 0 0 0 0
0 0 0 0 0 0 0 0 0 0 0 0 0 0 0 0 0 0 0 0 0 0 0 0 0 0 0 0 0 0 0 0 0 0 0 0 0 0 0 0 0 0 0 0
0 0 0 0 0 0 0 0 0 0 0 0 0 0 0 0 0 0 0 0 0 0 0 0 0 0 0 0 0 0 0 0 0 0 0 0 0 0 0 0 0 0 0 0
0 0 0 0 0 0 0 0 0 0 0 0 0 0 0 0 0 0 0 0 0 0 0 0 0 0 0 0 0 0 0 0 0 0 0 0 0 0 0 0 0 0 0 0
0 0 0 0 0 0 0 0 0 0 0 0 0 0 0 0 0 0 0 0 0 0 0 0 0 0 0 0 0 0 0 0 0 0 0 0 0 0 0 0 0 0 0 0
0 0 0 0 0 0 0 0 0 0 0 0 0 0 0 0 0 0 0 0 0 0 0 0 0 0 0 0 0 0 0 0 0 0 0 0 0 0 0 0 0 0 0 0
0 0 0 0 0 0 0 0 0 0 0 0 0 0 0 0 0 0 0 0 0 0 0 0 0 0 0 0 0 0 0 0 0 0 0 0 0 0 0 0 0 0 0 0
0 0 0 0 0 0 0 0 0 0 0 0 0 0 0 0 0 0 0 0 0 0 0 0 0 0 0 0 0 0 0 0 0 0 0 0 0 0 0 0 0 0 0 0
0 0 0 0 0 0 0 0 0 0 0 0 0 0 0 0 0 0 0 0 0 0 0 0 0 0 0 0 0 0 0 0 0 0 0 0 0 0 0 0 0 0 0 0
0 0 0 0 0 0 0 0 0 0 0 0 0 0 0 0 0 0 0 0 0 0 0 0 0 0 0 0 0 0 0 0 0 0 0 0 0 0 0 0 0 0 0 0
0 0 0 0 0 0 0 0 0 0 0 0 0 0 0 0 0 0 0 0 0 0 0 0 0 0 0 0 0 0 0 0 0 0 0 0 0 0 0 0 0 0 0 0
0 0 0 0 0 0 0 0 0 0 0 0 0 0 0 0 0 0 0 0 0 0 0 0 0 0 0 0 0 0 0 0 0 0 0 0 0 0 0 0 0 0 0 0
0 0 0 0 0 0 0 0 0 0 0 0 0 0 0 0 0 0 0 0 0 0 0 0 0 0 0 0 0 0 0 0 0 0 0 0 0 0 0 0 0 0 0 0
0 0 0 0 0 0 0 0 0 0 0 0 0 0 0 0 0 0 0 0 0 0 0 0 0 0 0 0 0 0 0 0 0 0 0 0 0 0 0 0 0 0 0 0
0 0 0 0 0 0 0 0 0 0 0 0 0 0 0 0 0 0 0 0 0 0 0 0 0 0 0 0 0 0 0 0 0 0 0 0 0 0 0 0 0 0 0 0
0 0 0 0 0 0 0 0 0 0 0 0 0 0 0 0 0 0 0 0 0 0 0 0 0 0 0 0 0 0 0 0 0 0 0 0 0 0 0 0 0 0 0 0
0 0 0 0 0 0 0 0 0 0 0 0 0 0 0 0 0 0 0 0 0 0 0 0 0 0 0 0 0 0 0 0 0 0 0 0 0 0 0 0 0 0 0 0
CIN
-0 -0 -0 -0 -0 -0 -0 -0 -0 -0 -0 -0 -0 -6 -24 -0 -0 -42 -10 -2 -43 -100 -147 -113 -110 -0 -0 -0 -0 -0 -0 -0 -0 -0 -0 -0 -0 -0 -0 -0 -0 -0 -0 -0
-0 -0 -0 -0 -0 -0 -0 -0 -0 -0 -0 -0 -1 -1 -1 -0 -0 -0 -0 -111 -139 -89 -124 -0 -0 -0 -0 -0 -0 -0 -0 -0 -0 -0 -0 -0 -0 -0 -0 -0 -0 -0 -0 -0
-0 -0 -0 -0 -0 -0 -0 -0 -0 -0 -0 -0 -1 -0 -0 -0 -0 -0 -0 -0 -0 -30 -1 -0 -0 -0 -0 -0 -0 -0 -0 -0 -0 -0 -0 -0 -0 -0 -0 -0 -0 -0 -0 -0
-0 -0 -0 -3 -0 -0 -0 -0 -8 -0 -0 -8 -1 -1 -0 -0 -0 -0 -0 -0 -0 -0 -0 -0 -0 -0 -0 -0 -0 -0 -0 -0 -0 -0 -0 -0 -0 -0 -0 -0 -0 -0 -0 -0
-0 -0 -0 -0 -0 -0 -0 -0 -0 -0 -0 -0 -0 -0 -0 -0 -0 -0 -0 -0 -0 -0 -0 -0 -0 -0 -0 -0 -0 -0 -0 -0 -0 -0 -0 -0 -0 -0 -0 -0 -0 -0 -0 -0
-0 -0 -0 -0 -0 -0 -0 -0 -0 -0 -0 -0 -0 -0 -0 -0 -0 -0 -0 -0 -0 -0 -0 -0 -0 -0 -0 -0 -0 -0 -0 -0 -0 -0 -0 -0 -0 -0 -0 -0 -0 -0 -0 -0
-0 -0 -0 -0 -0 -0 -0 -0 -0 -0 -0 -0 -0 -0 -0 -0 -0 -0 -0 -0 -0 -0 -0 -0 -0 -0 -0 -0 -0 -0 -0 -0 -0 -0 -0 -0 -0 -0 -0 -0 -0 -0 -0 -0
-1 -3 -0 -0 -0 -0 -0 -0 -0 -0 -0 -0 -0 -0 -0 -0 -0 -0 -0 -0 -0 -0 -0 -0 -0 -0 -0 -0 -0 -0 -0 -0 -0 -0 -0 -0 -0 -0 -0 -0 -0 -0 -0 -0
-0 -0 -0 -0 -0 -0 -0 -0 -0 -0 -0 -0 -0 -0 -0 -0 -0 -0 -0 -0 -0 -0 -0 -0 -0 -0 -0 -0 -0 -0 -0 -0 -0 -0 -0 -0 -0 -0 -0 -0 -0 -0 -0 -0
-0 -0 -0 -0 -0 -0 -0 -0 -0 -0 -0 -0 -0 -0 -0 -0 -0 -0 -0 -0 -0 -0 -0 -0 -0 -0 -0 -0 -0 -0 -0 -0 -0 -0 -0 -0 -0 -0 -0 -0 -0 -0 -0 -0
-0 -0 -0 -0 -0 -0 -0 -0 -0 -0 -0 -0 -0 -0 -0 -0 -0 -0 -0 -0 -0 -0 -0 -0 -0 -0 -0 -0 -0 -0 -0 -0 -0 -0 -0 -0 -0 -0 -0 -0 -0 -0 -0 -0
-0 -0 -0 -0 -0 -0 -0 -0 -0 -0 -0 -0 -0 -0 -0 -0 -0 -0 -0 -0 -0 -0 -0 -0 -0 -0 -0 -0 -0 -0 -0 -0 -0 -0 -0 -0 -0 -0 -0 -0 -0 -0 -0 -0
-0 -0 -0 -0 -0 -0 -0 -0 -0 -0 -0 -0 -0 -0 -0 -0 -0 -0 -0 -0 -0 -0 -0 -0 -0 -0 -0 -0 -0 -0 -0 -0 -0 -0 -0 -0 -0 -0 -0 -0 -0 -0 -0 -0
-0 -0 -0 -0 -0 -0 -0 -0 -0 -0 -0 -0 -0 -0 -0 -0 -0 -0 -0 -0 -0 -0 -0 -0 -0 -0 -0 -0 -0 -0 -0 -0 -0 -0 -0 -0 -0 -0 -0 -0 -0 -0 -0 -0
-0 -0 -0 -0 -0 -0 -0 -0 -0 -0 -0 -0 -0 -0 -0 -0 -0 -0 -0 -0 -0 -0 -0 -0 -0 -0 -0 -0 -0 -0 -0 -0 -0 -0 -0 -0 -0 -0 -0 -0 -0 -0 -0 -0
-0 -0 -0 -0 -0 -0 -0 -0 -0 -0 -0 -0 -0 -0 -0 -0 -0 -0 -0 -0 -0 -0 -0 -0 -0 -0 -0 -0 -0 -0 -0 -0 -0 -0 -0 -0 -0 -0 -0 -0 -0 -0 -0 -0
-0 -0 -0 -0 -0 -0 -0 -0 -0 -0 -0 -0 -0 -0 -0 -0 -0 -0 -0 -0 -0 -0 -0 -0 -0 -0 -0 -0 -0 -0 -0 -0 -0 -0 -0 -0 -0 -0 -0 -0 -0 -0 -0 -0
-0 -0 -0 -0 -0 -0 -0 -0 -0 -0 -0 -0 -0 -0 -0 -0 -0 -0 -0 -0 -0 -0 -0 -0 -0 -0 -0 -0 -0 -0 -0 -0 -0 -0 -0 -0 -0 -0 -0 -0 -0 -0 -0 -0
-0 -0 -0 -0 -0 -0 -0 -0 -0 -0 -0 -0 -0 -0 -0 -0 -0 -0 -0 -0 -0 -0 -0 -0 -0 -0 -0 -0 -0 -0 -0 -0 -0 -0 -0 -0 -0 -0 -0 -0 -0 -0 -0 -0
-0 -0 -0 -0 -0 -0 -0 -0 -0 -0 -0 -0 -0 -0 -0 -0 -0 -0 -0 -0 -0 -0 -0 -0 -0 -0 -0 -0 -0 -0 -0 -0 -0 -0 -0 -0 -0 -0 -0 -0 -0 -0 -0 -0
-0 -0 -0 -0 -0 -0 -0 -0 -0 -0 -0 -0 -0 -0 -0 -0 -0 -0 -0 -0 -0 -0 -0 -0 -0 -0 -0 -0 -0 -0 -0 -0 -0 -0 -0 -0 -0 -0 -0 -0 -0 -0 -0 -0
-0 -0 -0 -0 -0 -0 -0 -0 -0 -0 -0 -0 -0 -0 -0 -0 -0 -0 -0 -0 -0 -0 -0 -0 -0 -0 -0 -0 -0 -0 -0 -0 -0 -0 -0 -0 -0 -0 -0 -0 -0 -0 -0 -0
-0 -0 -0 -0 -0 -0 -0 -0 -0 -0 -0 -0 -0 -0 -0 -0 -0 -0 -0 -0 -0 -0 -0 -0 -0 -0 -0 -0 -0 -0 -0 -0 -0 -0 -0 -0 -0 -0 -0 -0 -0 -0 -0 -0
-0 -0 -0 -0 -0 -0 -0 -0 -0 -0 -0 -0 -0 -0 -0 -0 -0 -0 -0 -0 -0 -0 -0 -0 -0 -0 -0 -0 -0 -0 -0 -0 -0 -0 -0 -0 -0 -0 -0 -0 -0 -0 -0 -0
-0 -0 -0 -0 -0 -0 -0 -0 -0 -0 -0 -0 -0 -0 -0 -0 -0 -0 -0 -0 -0 -0 -0 -0 -0 -0 -0 -0 -0 -0 -0 -0 -0 -0 -0 -0 -0 -0 -0 -0 -0 -0 -0 -0
-0 -0 -0 -0 -0 -0 -0 -0 -0 -0 -0 -0 -0 -0 -0 -0 -0 -0 -0 -0 -0 -0 -0 -0 -0 -0 -0 -0 -0 -0 -0 -0 -0 -0 -0 -0 -0 -0 -0 -0 -0 -0 -0 -0
-0 -0 -0 -0 -0 -0 -0 -0 -0 -0 -0 -0 -0 -0 -0 -0 -0 -0 -0 -0 -0 -0 -0 -0 -0 -0 -0 -0 -0 -0 -0 -0 -0 -0 -0 -0 -0 -0 -0 -0 -0 -0 -0 -0
Wind_Speed
9 13 13 13 17 17 17 18 17 24 27 30 26 23 17 17 13 7 9 4 3 2 2 2 3 10 7 13 13 13 14 14 15 14 14 14 15 14 12 11 8 9 9 7
11 15 16 16 17 17 18 20 19 22 27 19 17 16 6 6 9 7 8 8 8 0 6 7 7 11 10 12 12 12 13 13 14 15 15 14 12 13 12 11 8 8 7 6
5 7 10 8 8 6 8 12 12 11 16 20 13 10 5 5 4 7 11 10 8 6 9 9 8 10 12 11 11 12 13 14 14 14 14 12 13 9 11 9 10 9 6 5
5 8 2 3 9 8 9 15 12 10 12 12 7 7 5 7 7 9 11 11 4 11 11 11 10 12 14 14 14 13 15 15 15 15 11 9 10 10 7 7 7 7 6 5
3 3 11 2 5 2 3 6 5 8 9 10 4 1 5 11 11 5 6 10 11 11 13 13 14 14 16 14 14 14 15 15 13 13 10 8 10 9 9 7 5 5 4 4
1 4 3 3 3 3 4 5 2 2 9 9 10 3 2 9 9 12 12 10 12 13 13 14 12 13 16 14 14 14 12 11 10 11 12 8 7 7 6 5 5 4 4 3
5 4 7 6 2 4 2 6 6 5 3 6 3 3 3 4 10 10 10 13 13 12 13 13 12 13 13 11 12 13 12 11 10 9 10 9 8 6 5 5 5 3 2 2
4 4 7 0 5 2 4 5 5 5 5 7 6 5 5 6 7 8 10 11 12 11 12 12 13 11 12 11 11 13 12 11 11 9 8 7 8 6 7 5 3 2 1 2
7 7 6 3 7 4 2 3 5 2 3 9 8 6 6 5 6 8 8 10 10 12 14 12 13 10 13 10 12 13 12 11 10 9 8 7 6 5 4 3 3 2 2 2
4 3 3 4 6 6 4 4 5 2 4 7 10 8 8 6 5 6 7 9 11 12 13 12 10 10 10 11 11 13 12 11 7 7 6 6 4 4 3 3 3 3 4 4
5 10 6 6 5 4 5 4 5 7 6 10 10 8 9 8 7 6 8 10 10 11 12 12 11 10 10 10 11 12 9 7 6 5 6 5 5 3 4 4 4 3 2 2
5 2 0 1 3 3 6 5 6 7 8 8 8 8 8 9 8 10 10 10 11 12 13 12 11 11 10 8 8 9 8 5 5 5 4 4 3 2 3 4 3 1 2 2
9 2 2 4 4 4 5 6 7 7 7 10 8 9 9 10 8 15 11 11 11 12 11 11 11 9 7 7 7 8 8 6 5 5 4 4 4 4 4 4 5 5 5 6
4 4 3 5 3 7 8 8 10 8 7 9 11 10 10 10 12 11 11 11 11 11 10 10 9 8 7 8 9 8 7 12 5 4 4 4 4 3 2 2 2 3 5 8
9 7 4 6 7 7 7 8 10 9 8 10 10 11 10 11 10 11 10 10 11 11 10 9 9 8 7 7 8 7 6 5 5 4 4 3 3 3 2 2 3 3 3 6
6 5 5 5 7 8 7 7 11 8 8 9 10 11 11 11 10 10 9 8 10 9 7 8 8 6 6 7 7 6 6 9 6 3 3 3 3 3 3 3 4 3 4 3
2 4 1 0 7 7 7 7 9 11 9 9 11 13 13 12 11 8 9 8 9 9 7 7 7 6 7 7 7 4 4 4 5 3 3 2 2 3 3 3 3 4 4 5
7 6 7 7 10 8 7 9 10 13 12 12 11 12 12 11 11 10 9 9 10 9 7 6 6 7 7 7 6 4 4 3 3 2 2 3 2 2 3 3 3 4 4 5
8 5 5 6 7 8 9 10 10 10 13 13 12 11 10 10 10 9 8 9 9 9 4 6 11 8 6 7 6 4 4 3 2 2 2 4 4 3 3 4 4 4 4 5
6 3 2 6 8 9 11 9 11 12 12 12 12 13 12 10 9 9 7 6 5 5 6 6 7 6 6 6 7 3 3 2 2 2 2 2 3 3 3 6 5 4 4 4
6 5 5 6 7 8 7 11 12 12 11 12 13 13 12 10 8 10 10 7 4 8 7 10 6 4 4 4 4 3 3 3 2 2 3 3 4 4 4 4 4 4 5 5
5 3 5 6 7 7 8 9 11 11 12 12 12 12 13 10 9 6 5 7 5 13 6 4 4 7 4 6 3 3 2 2 2 3 3 3 3 3 4 3 4 3 3 4
4 2 3 5 6 8 8 9 10 11 12 13 14 13 10 8 7 9 8 6 5 9 5 5 9 9 6 3 2 2 2 2 3 3 3 3 3 3 3 2 3 3 4 4
3 3 3 5 7 9 9 5 8 9 10 10 10 10 12 9 5 4 9 13 14 11 7 6 7 6 5 2 2 2 2 2 3 3 3 7 3 3 3 3 4 4 4 6
3 2 3 4 4 4 8 8 10 10 11 11 10 7 7 4 5 5 7 7 14 8 5 10 7 5 3 2 2 2 2 2 3 2 2 2 3 3 3 4 4 4 4 3
1 2 3 3 5 5 6 7 8 7 9 9 7 6 6 6 8 8 7 9 6 9 4 4 3 3 2 1 1 2 3 3 3 3 3 3 3 4 3 4 4 5 5 5
2 3 4 4 3 5 4 6 8 9 8 8 9 6 7 7 9 8 10 6 5 4 4 3 2 2 1 1 2 3 3 3 5 3 2 3 3 4 4 4 4 5 6 6
Wind_Direction
263 276 282 270 267 261 249 253 255 278 279 286 293 299 285 259 274 344 268 41 323 329 184 82 69 73 103 100 108 116 125 133 133 128 124 123 118 118 117 114 107 106 105 103
285 259 251 256 260 258 262 263 262 264 268 281 283 284 352 20 32 347 344 334 343 270 120 99 98 98 106 105 111 120 126 122 119 120 115 107 114 117 114 109 111 101 101 109
264 334 311 264 251 237 258 259 261 271 297 305 296 302 22 350 322 307 298 287 288 245 128 108 93 101 102 111 111 121 116 105 106 101 104 112 104 106 106 123 114 108 114 132
289 313 282 194 182 200 244 275 271 298 293 287 306 320 9 19 328 294 276 266 250 100 96 99 96 88 90 87 99 105 102 97 93 95 106 130 126 114 125 106 114 121 124 112
272 283 267 333 304 188 236 294 4 307 306 311 275 103 40 354 332 300 344 81 96 100 106 105 100 104 105 102 102 98 96 101 110 123 135 127 122 125 105 110 115 95 120 103
334 295 283 231 126 138 161 259 326 343 337 355 354 356 7 341 22 51 58 67 85 93 97 94 103 105 103 105 108 107 111 115 138 141 127 134 122 112 103 100 110 99 87 83
245 262 279 278 101 125 279 277 344 339 17 12 50 31 36 12 82 77 71 77 79 84 95 104 107 105 103 110 115 122 133 141 114 111 121 109 97 90 99 89 94 98 123 237
179 229 275 170 334 326 265 311 329 334 106 97 113 90 62 60 59 95 117 121 112 108 109 109 109 111 122 116 112 109 112 105 99 105 104 100 93 80 77 90 107 133 107 357
180 213 249 251 208 239 107 286 309 17 101 131 136 134 114 67 71 82 85 91 84 88 91 85 93 111 112 112 107 107 105 107 106 96 85 84 93 104 101 95 86 66 60 50
357 321 280 27 16 51 45 347 330 348 110 126 126 125 118 116 102 91 89 92 90 86 87 89 93 101 105 111 113 108 101 94 85 91 94 93 91 83 84 75 52 44 38 28
265 281 302 78 74 24 42 31 49 43 75 115 125 129 125 115 101 95 85 84 91 100 103 102 106 102 102 105 106 99 97 96 101 97 100 90 81 88 76 72 89 62 32 12
238 90 162 104 75 25 76 66 84 94 75 77 97 106 110 109 111 97 95 97 95 96 100 102 98 93 93 93 99 108 103 99 99 94 88 89 89 60 60 104 80 50 309 311
256 102 57 112 86 67 103 100 89 93 98 107 91 100 104 107 104 107 102 103 104 105 103 100 96 90 84 86 92 90 95 92 93 87 83 73 53 52 29 338 273 282 273 283
333 90 278 171 171 120 107 98 98 94 91 101 106 100 101 103 110 107 105 108 106 103 97 94 90 80 75 79 82 82 86 92 83 76 67 59 56 38 24 9 336 322 336 329
258 200 133 110 112 111 119 127 115 112 117 108 108 115 112 108 108 106 107 106 101 96 92 90 87 77 74 84 88 87 80 73 79 77 64 63 39 9 350 339 339 330 334 343
39 64 124 154 143 143 146 144 126 128 122 125 120 112 109 107 107 102 99 106 111 108 100 94 85 88 87 87 86 77 74 82 82 71 56 34 17 359 350 359 344 332 332 314
104 320 356 202 165 166 168 150 143 135 132 126 119 119 116 115 111 101 93 90 94 95 97 101 103 89 80 78 84 89 96 70 72 58 51 26 348 356 357 344 332 325 309 313
246 251 192 181 171 164 171 152 149 142 138 127 125 123 125 126 120 114 108 104 95 86 86 97 96 86 76 75 82 80 82 80 60 61 9 11 342 324 322 323 318 321 321 327
256 224 197 184 165 159 142 141 148 129 128 132 133 132 119 113 117 117 114 109 109 111 113 110 111 95 86 87 84 80 85 80 50 22 22 350 354 343 342 334 328 317 315 327
20 10 163 134 135 150 139 146 127 130 136 137 126 123 119 120 123 120 114 108 130 130 124 123 108 105 102 84 91 83 78 64 29 353 340 359 332 333 331 330 326 324 324 329
24 31 80 109 112 116 127 133 136 141 141 135 135 133 131 129 120 121 114 113 125 122 134 119 115 108 110 106 87 83 62 36 11 358 351 335 330 334 327 320 327 330 333 322
8 44 90 108 115 114 123 130 135 136 134 128 123 128 128 122 119 100 91 133 139 133 121 109 114 121 122 97 84 77 58 22 360 359 344 332 328 322 310 328 337 310 294 293
13 65 120 113 128 126 113 124 135 139 133 135 138 138 135 132 131 128 129 154 125 136 117 113 127 118 108 88 78 53 23 9 343 329 323 314 306 307 310 290 272 277 286 283
23 41 86 108 122 124 128 120 111 114 118 120 123 131 137 130 87 93 126 141 142 128 120 122 124 115 103 84 58 28 360 344 324 323 321 324 329 309 289 278 281 277 274 297
60 66 71 82 102 107 112 115 109 110 112 110 106 100 113 105 120 136 120 130 132 110 111 129 125 110 85 65 32 358 324 306 291 252 277 274 277 277 275 281 280 276 274 275
251 165 164 146 126 126 137 137 133 136 134 125 110 109 103 109 119 119 115 115 112 125 109 116 122 103 88 36 351 322 301 307 316 294 296 278 276 277 276 281 280 278 279 276
332 113 105 106 119 140 138 142 142 148 143 138 120 119 117 113 122 117 118 109 108 116 120 124 117 93 48 334 325 295 299 293 306 282 267 277 273 266 271 268 274 283 284 283